Theta_e
340 335 331 325 322 321 320 318 317 316 315 314 314 314 314 312 310 309 309 310 309 309 309 309 308 308 307 304 305 304 303 303 299 301 303 303 302 302 305 305 306 304 303
330 325 321 320 318 317 316 315 315 313 314 313 313 311 309 307 306 307 308 308 309 308 307 306 306 308 302 301 301 300 300 298 296 294 298 300 300 302 302 300 302 304 302
323 320 319 316 315 313 313 313 312 312 312 311 310 305 303 301 301 301 302 302 303 305 306 305 304 302 300 299 299 297 297 298 295 297 297 299 300 299 300 300 300 300 302
320 318 315 314 312 311 311 312 312 312 311 308 303 300 299 297 297 298 299 298 301 305 304 303 302 300 298 297 296 294 295 294 297 297 297 297 298 302 300 298 298 299 297
314 313 312 311 312 312 313 313 312 311 308 301 299 298 297 296 296 294 295 297 299 301 301 302 303 302 301 298 295 293 295 297 298 298 298 297 297 296 296 299 296 296 295
312 312 312 312 312 312 311 310 310 307 303 302 299 295 292 294 296 297 296 295 300 300 298 298 298 298 295 297 299 301 300 296 295 293 294 293 293 296 295 293 292 290 289
311 312 311 310 309 309 309 307 305 305 302 297 293 292 291 291 296 296 298 295 297 298 297 297 297 296 293 292 295 298 297 298 296 292 291 293 292 292 292 291 290 290 290
307 307 307 307 306 306 306 306 305 303 300 297 294 293 291 293 295 295 298 296 297 299 297 294 292 291 292 292 292 292 290 290 290 293 293 292 292 292 292 292 291 292 292
305 305 306 306 305 305 304 301 301 301 300 297 295 293 290 289 295 294 294 291 293 296 295 293 293 290 293 294 290 288 287 288 293 293 294 294 292 292 292 291 289 287 286
306 307 308 308 305 302 300 300 299 300 298 298 297 295 295 289 293 293 292 290 289 292 292 293 296 292 293 292 289 287 285 286 289 289 289 289 290 290 292 291 289 286 286
306 304 304 302 301 300 299 299 299 299 297 296 295 292 291 290 289 293 293 288 288 289 292 291 291 293 292 291 291 287 287 290 289 288 287 288 288 289 289 289 290 289 287
302 300 300 299 301 301 300 299 300 298 297 296 295 290 289 288 294 293 293 293 294 289 289 291 291 292 291 291 290 291 291 293 290 287 286 285 286 286 288 289 290 291 292
299 299 300 302 301 298 296 296 293 294 296 295 294 288 285 286 286 291 291 292 293 290 291 293 295 294 291 291 292 293 292 290 288 285 284 285 286 287 288 289 290 291 293
295 291 291 290 289 290 289 289 288 290 290 289 289 285 284 284 284 284 286 286 290 289 290 289 294 293 293 292 291 290 291 290 288 286 285 286 287 287 286 288 287 289 290
293 292 291 289 289 287 287 288 286 285 287 285 283 284 283 282 284 287 287 286 285 287 288 288 287 286 286 286 287 288 289 288 287 287 285 285 285 286 286 288 288 289 289
293 292 290 289 288 287 285 283 289 289 289 289 289 286 284 287 288 289 289 289 289 290 288 285 284 284 285 286 286 286 287 287 286 286 286 285 285 285 285 287 288 289 289
291 290 290 290 287 285 284 283 283 285 289 288 288 288 288 287 288 289 289 289 290 289 285 284 284 285 285 285 285 284 284 286 287 286 285 285 286 286 286 286 287 288 289
294 294 290 290 289 288 286 285 284 283 283 283 288 287 289 289 290 289 290 290 287 287 285 284 284 285 285 285 284 284 283 284 285 285 285 285 286 286 286 285 286 287 288
297 295 294 293 293 292 291 289 288 286 286 286 285 287 288 289 288 289 290 286 285 285 285 285 285 285 285 284 284 283 282 282 283 284 285 285 286 287 287 286 286 287 287
294 294 293 292 292 291 291 289 288 287 286 286 285 284 285 287 286 286 287 287 286 285 285 284 285 285 284 284 283 282 281 281 281 282 283 285 286 288 287 287 287 287 288
292 291 290 292 291 291 291 289 287 286 285 284 284 284 284 286 285 285 285 286 285 285 285 284 284 284 284 283 282 281 281 280 280 281 283 284 285 287 288 288 287 287 287
292 292 292 292 292 291 290 289 287 286 286 285 284 285 286 286 286 286 286 286 286 286 286 285 284 284 283 282 281 280 280 279 279 281 282 283 285 289 288 288 287 287 286
293 293 291 290 290 289 289 289 288 287 287 286 286 287 287 285 285 286 286 286 286 286 286 285 283 282 282 282 281 281 279 279 279 281 282 282 285 288 288 288 287 286 285
292 291 290 289 290 290 288 287 287 287 287 287 286 286 286 285 285 286 286 286 286 286 286 284 283 282 281 281 281 281 281 281 281 283 283 284 286 288 289 288 287 286 285
292 290 289 289 289 287 287 287 287 287 287 287 286 286 285 286 285 286 286 286 286 286 285 284 282 282 281 281 280 281 281 282 282 283 284 287 287 288 288 288 287 286 285
291 291 290 289 289 288 287 287 286 286 286 287 286 285 285 285 285 285 285 286 286 285 285 284 282 281 281 280 281 281 281 281 281 283 285 286 285 286 286 287 287 286 285
Wind_Speed
13 15 16 13 14 14 13 13 13 14 13 12 10 9 8 7 6 6 5 6 6 5 3 4 5 5 5 5 5 5 6 8 7 8 7 8 10 10 8 8 8 7 10
16 16 16 15 15 15 13 15 14 14 12 11 10 10 9 9 8 8 7 7 5 5 5 5 5 5 7 6 5 8 5 5 5 10 7 8 7 8 4 7 6 9 10
17 16 15 15 16 15 16 15 14 13 12 11 11 10 9 8 8 8 7 6 5 5 6 8 9 10 9 8 6 5 5 6 5 6 9 7 7 4 8 6 7 11 10
18 15 15 14 16 15 15 15 13 12 12 11 10 10 9 8 8 8 7 6 6 7 8 8 9 9 8 7 6 5 6 6 7 7 7 7 5 9 8 10 12 9 12
19 19 13 15 16 17 15 13 12 12 12 11 11 9 8 7 5 4 4 4 5 5 5 6 6 12 16 12 5 6 7 6 7 7 6 8 8 10 11 10 10 11 11
18 17 16 16 16 15 14 13 12 13 13 11 11 9 6 5 6 5 4 4 4 5 6 7 6 11 11 15 15 16 14 11 11 7 7 9 10 8 9 9 9 9 7
18 15 17 16 15 14 13 13 12 12 12 10 8 7 6 5 11 10 5 1 3 3 6 6 5 7 7 7 12 12 14 18 18 9 8 8 8 9 9 11 10 9 8
16 16 15 14 15 13 13 12 9 8 11 9 7 6 5 7 13 14 11 6 5 4 7 5 5 4 5 7 7 9 10 10 10 8 8 7 8 8 8 7 10 10 9
16 14 13 14 14 13 12 7 7 11 9 7 6 6 7 6 13 15 9 7 9 7 4 3 4 5 9 10 7 8 8 10 12 18 16 15 13 14 14 7 6 8 7
15 14 13 12 11 11 9 9 6 8 7 5 6 6 9 7 11 13 10 5 6 4 3 5 11 9 11 12 8 8 9 11 14 14 11 11 12 10 13 6 6 6 6
14 14 13 11 11 9 8 6 6 7 7 6 6 5 6 7 8 12 11 5 4 5 4 4 3 8 8 9 7 5 7 9 11 10 9 8 9 9 7 7 7 5 6
14 14 12 9 9 6 8 6 7 7 6 6 7 5 4 6 12 12 13 10 11 4 5 4 4 5 6 7 5 8 11 11 8 9 9 9 10 10 10 10 11 8 7
12 10 9 8 8 7 7 7 6 1 4 5 7 5 5 6 6 13 13 13 13 6 6 9 8 3 4 2 7 13 8 9 9 8 9 9 9 10 12 10 10 10 10
12 13 11 10 10 10 8 5 6 6 7 8 7 6 5 4 4 5 6 7 12 9 10 7 8 9 8 7 5 7 5 9 10 9 9 9 9 9 9 8 9 10 8
12 11 10 9 10 10 9 6 8 5 5 7 4 5 5 4 3 5 5 5 5 6 6 4 4 4 5 5 5 8 8 10 11 10 9 10 10 10 9 9 7 8 6
11 9 8 8 9 8 8 7 14 12 14 14 10 6 2 1 6 11 13 13 11 7 5 4 4 4 5 7 9 10 10 14 11 10 10 9 10 10 10 9 8 7 8
11 9 8 9 8 7 6 8 9 7 11 9 8 7 3 2 5 6 8 7 8 8 4 4 4 5 8 8 9 8 10 10 11 10 10 10 10 10 11 10 9 9 9
11 12 8 8 7 6 8 7 5 5 4 2 4 2 8 11 12 13 10 9 5 6 4 5 5 6 8 8 9 8 9 10 10 10 10 11 10 10 10 10 9 10 10
8 6 7 7 7 8 7 5 4 5 4 3 2 5 4 7 8 7 10 5 4 5 4 5 6 7 8 8 8 9 9 9 9 11 10 10 11 10 11 10 10 12 10
9 14 10 6 5 7 7 6 6 5 5 5 4 2 3 3 5 4 5 4 5 5 5 5 6 7 8 8 8 8 9 9 10 9 11 11 11 9 11 11 10 11 10
5 5 7 6 6 6 7 7 6 5 5 5 3 2 4 5 5 4 4 5 5 5 5 5 7 7 7 7 8 8 9 9 9 9 10 10 12 10 12 9 9 10 10
5 5 6 6 6 7 8 7 6 6 5 5 3 3 8 5 5 5 5 5 5 5 5 5 6 7 7 7 8 8 8 9 9 10 11 10 10 11 11 12 11 10 10
6 8 7 5 6 6 6 6 5 5 5 5 5 5 5 5 5 5 5 5 5 5 6 6 5 6 6 6 7 7 7 9 10 9 10 10 9 9 12 12 11 11 11
9 7 6 5 6 8 7 6 6 7 6 6 5 5 5 5 5 6 5 4 5 5 7 7 7 8 7 7 7 8 8 9 9 10 12 10 9 10 8 13 10 12 11
6 5 6 6 7 6 6 6 6 6 6 6 5 5 5 6 6 5 5 5 5 5 8 7 6 8 9 11 12 15 16 18 15 15 10 11 13 13 6 9 12 11 13
6 7 6 6 5 5 6 6 6 6 6 6 6 6 6 6 5 5 5 6 5 6 7 6 8 11 10 9 11 15 17 18 16 19 12 10 11 11 7 7 14 11 14
Wind_Direction
114 108 103 96 97 100 106 109 107 99 96 93 87 76 65 56 37 46 58 51 43 14 12 25 5 0 38 24 17 4 357 6 344 330 326 333 318 315 330 351 1 347 338
112 107 105 105 104 101 102 99 99 97 85 90 83 74 64 51 35 28 31 15 16 17 11 14 4 43 42 24 15 8 15 355 340 316 315 312 317 315 337 335 334 337 328
104 104 108 105 105 106 103 99 93 98 97 86 84 74 65 51 39 28 23 2 359 2 13 40 47 52 35 23 12 356 337 331 306 302 311 324 314 312 331 324 331 332 333
107 99 97 103 103 101 100 99 103 103 100 89 82 74 65 55 41 26 12 357 1 34 38 67 57 53 39 12 352 335 326 312 312 312 307 310 311 338 331 328 333 340 327
105 97 111 104 106 104 102 106 107 105 97 93 89 77 66 57 42 24 357 360 12 57 44 39 70 48 28 6 352 324 323 329 328 327 336 338 335 337 342 340 330 324 325
99 112 110 112 105 107 111 112 106 93 96 91 77 74 59 48 23 30 38 15 3 67 54 24 52 40 17 4 358 354 8 358 11 345 336 336 335 349 344 338 325 326 331
107 114 110 105 104 107 104 101 103 107 102 99 94 77 52 22 15 11 9 288 3 56 76 51 40 39 14 360 350 360 0 1 4 335 330 355 337 343 331 324 327 318 311
103 98 100 104 105 109 106 111 111 102 116 104 95 84 60 30 27 23 27 51 20 90 85 68 58 45 12 11 360 4 1 359 342 341 344 340 335 342 325 321 308 308 306
98 105 111 112 116 113 110 109 95 98 110 110 120 100 77 39 32 31 33 31 30 60 75 61 74 42 33 29 21 2 359 4 355 356 347 347 348 336 337 325 336 334 332
114 117 118 114 107 105 106 103 99 102 107 106 106 107 85 65 34 35 30 32 42 41 354 322 49 65 63 43 27 6 355 348 347 347 347 344 341 331 336 335 323 325 324
96 93 92 95 105 108 105 93 102 114 114 119 106 90 89 68 36 28 30 33 25 10 13 356 43 82 82 60 31 18 347 322 338 345 337 339 340 335 337 333 323 303 296
100 100 100 101 105 95 98 108 120 121 140 141 116 98 59 42 39 21 25 32 29 47 2 346 348 97 94 54 3 345 360 358 355 350 343 347 343 340 334 328 318 305 272
102 111 115 93 70 59 66 67 54 42 130 117 106 87 56 41 24 14 10 8 16 22 2 341 7 28 142 8 344 2 7 8 3 352 352 344 336 325 320 322 321 311 298
83 75 74 80 74 68 71 71 83 63 76 75 89 80 64 45 16 349 2 1 7 9 357 342 20 20 37 27 351 347 6 12 7 357 345 335 329 335 331 332 323 329 321
95 99 98 90 89 85 65 56 77 53 89 100 81 87 88 41 326 328 351 346 342 313 330 19 9 354 4 2 360 5 7 7 8 356 345 344 342 337 332 330 323 325 321
112 109 106 101 93 91 95 79 49 65 66 73 89 110 55 183 343 358 349 346 356 20 42 35 4 9 12 12 10 13 6 7 3 345 342 343 343 334 328 329 330 330 324
121 121 110 111 118 112 109 101 96 22 56 61 68 81 81 297 347 340 325 335 23 57 58 31 21 21 14 17 11 12 7 2 350 342 340 340 340 334 333 334 334 334 332
142 152 141 134 131 134 118 121 123 120 114 72 356 358 358 5 7 9 39 36 16 17 47 39 29 27 22 16 11 7 3 355 349 343 341 338 339 334 338 337 336 333 330
134 133 133 140 149 147 141 142 135 132 135 127 75 12 345 323 329 358 51 64 47 25 32 42 40 34 26 17 11 3 356 349 345 339 335 337 335 332 341 337 331 334 327
96 97 92 98 99 102 111 110 105 101 98 97 83 45 5 62 52 45 51 59 52 35 30 48 39 35 26 18 10 359 352 350 344 341 332 334 334 333 342 338 338 337 338
100 93 106 92 98 102 101 98 98 91 93 96 101 67 92 97 82 69 63 58 62 45 44 52 45 36 21 17 8 357 353 344 337 333 328 329 332 332 345 342 338 339 339
113 107 101 103 100 101 118 127 126 132 131 116 89 65 74 66 69 69 62 63 63 54 62 64 58 44 27 16 3 354 348 344 334 330 325 325 327 339 344 350 349 348 348
94 86 90 94 107 107 96 110 119 121 113 104 96 81 74 72 61 59 63 65 68 59 69 60 54 43 33 15 2 352 346 337 321 317 320 320 323 339 352 353 351 352 353
100 109 116 104 88 98 93 90 92 93 96 90 88 88 86 81 70 50 42 60 74 52 78 67 52 54 33 17 1 353 348 338 327 326 328 321 322 339 358 2 357 356 355
109 114 112 115 114 113 105 100 92 88 84 84 72 70 74 67 62 55 36 49 67 67 82 70 57 35 32 17 6 356 348 346 344 341 336 340 340 340 346 6 7 4 6
115 108 113 110 111 105 101 97 95 92 89 83 75 67 63 66 52 57 44 43 64 64 74 83 68 48 27 11 3 356 350 348 347 343 344 349 348 345 346 7 14 17 13